Date,TemperatureHighF,TemperatureAvgF,TemperatureLowF,DewpointHighF,DewpointAvgF,DewpointLowF,HumidityHigh,HumidityAvg,HumidityLow,PressureMaxIn,PressureMinIn,WindSpeedMaxMPH,WindSpeedAvgMPH,GustSpeedMaxMPH,PrecipitationSumIn
2014-1-1,80,74,72,52,8,-33,45,7,1,30.15,29.99,18,4,18,0.47
2014-1-2,85,75,66,68,25,-32,57,21,4,29.99,29.82,20,4,20,0.01
2014-1-3,72,63,58,51,23,-42,61,29,1,30.15,29.83,22,7,22,0.01
2014-1-4,74,69,58,50,18,-34,56,17,4,30.13,30.01,16,3,16,0.05
2014-1-5,80,74,67,48,9,-34,34,6,1,30.02,29.90,22,3,22,0.25
2014-1-6,82,71,57,64,26,-14,61,24,4,30.15,29.91,24,4,26,0.00
2014-1-7,57,52,48,42,30,-18,64,46,6,30.26,30.15,28,9,28,0.00
2014-1-8,70,61,50,0,0,-47,5,0,3,30.26,30.15,22,7,22,0.09
2014-1-9,75,72,68,0,0,0,0,0,100,30.19,30.07,21,6,24,0.63
2014-1-10,80,74,68,20,0,-30,11,0,1,30.12,30.01,20,4,24,0.06
2014-1-11,84,77,72,62,15,-30,48,10,1,30.07,29.92,18,3,25,0.02
2014-1-12,76,70,62,60,22,-38,57,21,1,30.12,29.97,18,3,18,0.00
2014-1-13,80,71,60,53,10,-30,40,7,1,30.10,29.98,16,2,17,0.01
2014-1-14,82,73,66,63,15,-31,52,11,1,29.99,29.88,20,3,20,0.00
2014-1-15,69,64,58,50,13,-42,57,15,2,29.99,29.88,16,2,16,0.01
2014-1-16,58,55,47,42,20,-49,61,28,1,30.11,29.90,25,5,25,0.01
2014-1-17,64,54,44,46,32,-50,61,46,2,30.17,30.05,11,1,11,0.00
2014-1-18,65,55,47,48,31,-48,61,42,3,30.19,30.09,17,1,17,0.01
2014-1-19,69,54,42,47,32,-10,61,44,9,30.24,30.10,16,1,16,0.00
2014-1-20,75,64,53,58,26,-45,58,27,1,30.15,29.99,18,2,18,0.00
2014-1-21,73,65,60,56,12,-39,58,13,1,30.02,29.84,21,3,21,0.00
2014-1-22,61,56,47,40,25,-45,59,34,4,30.12,29.84,22,4,24,0.00
2014-1-23,69,56,43,53,28,-49,59,37,2,30.25,30.11,15,3,15,0.00
2014-1-24,57,57,57,0,0,0,0,0,100,30.24,30.24,7,2,7,0.00
2014-1-25,76,62,50,58,21,-18,57,20,3,30.18,30.00,5,1,13,0.00
2014-1-26,78,69,54,57,28,-36,55,24,2,30.05,29.93,10,1,13,0.00
2014-1-27,83,71,58,64,22,-33,55,19,1,29.99,29.88,15,1,15,0.00
2014-1-28,82,70,59,62,13,-31,52,9,1,30.04,29.91,14,1,14,0.00
2014-1-29,74,67,62,0,0,0,0,0,100,30.04,29.93,19,4,19,0.17
2014-1-30,67,64,60,0,0,0,0,0,100,30.06,29.97,15,3,15,0.22
2014-1-31,81,74,65,0,0,0,0,0,100,30.04,29.95,14,2,15,0.05
2014-2-1,83,75,70,71,38,0,95,42,58,30.09,30.00,9,0,9,0.07
2014-2-2,80,75,68,71,69,66,97,83,66,30.11,30.01,0,0,0,0.03
2014-2-3,82,77,73,72,71,70,91,82,70,30.06,29.97,0,0,0,0.00
2014-2-4,81,77,73,72,71,68,93,82,67,30.09,30.00,0,0,0,0.03
2014-2-5,85,76,70,73,71,67,96,84,58,30.05,29.94,2,0,2,0.70
2014-2-6,83,76,71,74,70,68,98,84,61,30.06,29.97,2,0,2,0.00
2014-2-7,82,73,67,71,69,66,98,87,62,30.09,30.00,0,0,0,0.00
2014-2-8,86,75,68,73,68,62,99,82,47,30.05,29.93,0,0,0,0.00
2014-2-9,77,69,65,67,65,60,98,87,68,30.04,29.94,0,0,0,0.00
2014-2-10,80,71,63,67,64,62,95,80,62,30.04,29.94,0,0,0,0.00
2014-2-11,85,75,67,70,66,59,94,75,41,30.02,29.92,0,0,0,0.00
2014-2-12,82,72,64,70,66,61,96,80,58,29.99,29.77,0,0,0,0.55
2014-2-13,73,66,56,67,59,49,96,78,54,29.93,29.70,0,0,0,0.09
2014-2-14,71,59,48,52,46,38,91,65,30,30.04,29.91,0,0,0,0.00
2014-2-15,79,65,53,61,55,51,95,74,44,30.08,29.92,0,0,0,0.00
2014-2-16,76,64,50,58,51,42,91,67,32,30.14,30.05,0,0,0,0.00
2014-2-17,76,67,58,60,57,54,93,72,54,30.17,30.09,0,0,0,0.00
2014-2-18,79,69,59,64,59,53,96,74,45,30.18,30.10,0,0,0,0.00
2014-2-19,80,71,62,66,63,60,97,77,56,30.13,30.03,0,0,0,0.00
2014-2-20,81,75,64,71,67,63,96,77,62,30.12,30.03,0,0,0,0.00
2014-2-21,84,78,74,72,71,69,90,79,63,30.06,29.97,0,0,0,0.00
2014-2-22,85,76,69,73,69,66,98,80,55,30.07,29.94,0,0,0,0.00
2014-2-23,85,77,68,72,70,67,97,80,60,30.04,29.94,0,0,0,0.00
2014-2-24,86,77,67,72,68,61,97,75,44,29.99,29.91,0,0,0,0.00
2014-2-25,84,75,70,71,68,63,97,80,51,29.99,29.86,0,0,0,0.00
2014-2-26,85,74,65,70,65,60,98,76,45,29.92,29.71,0,0,0,0.00
2014-2-27,76,72,65,70,65,60,94,80,61,29.89,29.72,0,0,0,0.09
2014-2-28,73,66,61,63,59,54,97,81,60,30.04,29.83,0,0,0,0.10
2014-3-1,78,68,59,64,60,56,95,76,49,30.12,30.00,0,0,0,0.00
2014-3-2,79,70,61,65,61,58,96,75,51,30.15,30.03,0,0,0,0.00
2014-3-3,84,73,63,65,62,56,95,70,38,30.04,29.93,0,0,0,0.00
2014-3-4,80,72,63,66,64,60,96,77,55,30.03,29.92,0,0,0,0.00
2014-3-5,83,74,66,70,66,64,96,79,53,30.00,29.88,0,0,0,0.00
2014-3-6,87,73,66,72,67,62,97,84,48,29.95,29.75,0,0,0,0.45
2014-3-7,79,70,59,68,61,52,96,74,42,29.99,29.74,0,0,0,0.00
2014-3-8,73,63,55,62,55,49,93,75,52,30.10,29.97,0,0,0,0.00
2014-3-9,78,69,60,66,62,59,97,80,55,30.13,30.03,0,0,0,0.00
2014-3-10,83,72,63,64,61,57,94,72,42,30.08,29.92,0,0,0,0.00
2014-3-11,82,72,61,67,63,58,94,74,50,29.99,29.81,0,0,0,0.00
2014-3-12,86,76,68,71,67,63,93,74,50,29.85,29.71,0,0,0,0.00
2014-3-13,75,68,61,69,56,45,87,65,45,30.12,29.80,0,0,0,0.00
2014-3-14,72,66,57,57,52,46,81,62,47,30.21,30.10,0,0,0,0.00
2014-3-15,79,70,61,62,58,52,95,67,41,30.13,30.00,0,0,0,0.00
2014-3-16,82,75,70,66,62,59,76,65,51,30.01,29.78,0,0,0,0.00
2014-3-17,88,80,73,72,69,66,88,71,50,29.80,29.68,0,0,0,0.00
2014-3-18,79,74,67,72,64,57,95,73,53,29.97,29.64,0,0,0,0.23
2014-3-19,80,72,63,66,63,61,95,76,59,30.03,29.93,0,0,0,0.00
2014-3-20,81,74,67,70,67,62,93,79,67,30.00,29.90,0,0,0,0.00
2014-3-21,82,72,61,70,66,60,98,81,61,30.02,29.91,0,0,0,0.00
2014-3-22,81,77,73,72,69,64,94,77,63,30.04,29.92,0,0,0,0.29
2014-3-23,89,78,69,69,66,60,91,70,45,30.01,29.88,0,0,0,0.00
2014-3-24,75,71,66,70,67,64,96,87,70,30.01,29.86,0,0,0,0.31
2014-3-25,80,70,63,71,65,50,97,86,61,29.98,29.78,0,0,0,0.57
2014-3-26,68,61,55,54,48,38,83,64,49,30.21,29.97,0,0,0,0.00
2014-3-27,74,69,57,63,57,52,90,68,53,30.25,30.13,0,0,0,0.01
2014-3-28,79,75,72,70,64,61,83,69,59,30.15,30.00,0,0,0,0.00
2014-3-29,84,77,68,74,71,65,93,83,65,30.05,29.88,5,0,5,0.50
2014-3-30,75,70,61,67,57,42,93,68,31,30.02,29.85,5,0,5,0.01
2014-3-31,77,68,58,64,58,52,86,72,53,30.09,30.01,1,0,1,0.00
2014-4-1,78,70,61,64,61,58,96,74,54,30.13,30.05,1,0,1,0.00
2014-4-2,79,71,61,64,60,58,96,71,51,30.14,30.07,0,0,0,0.00
2014-4-3,80,74,66,65,63,60,87,69,56,30.11,30.02,0,0,0,0.00
2014-4-4,82,76,70,66,64,61,82,67,50,30.04,29.95,0,0,0,0.00
2014-4-5,84,76,68,69,66,62,92,72,51,30.01,29.93,0,0,0,0.00
2014-4-6,86,76,67,69,66,56,96,73,37,29.99,29.88,0,0,0,0.00
2014-4-7,89,80,75,75,71,67,89,74,49,29.94,29.82,0,0,0,0.00
2014-4-8,90,78,68,75,71,62,94,79,53,29.88,29.70,0,0,0,0.25
2014-4-9,76,70,64,64,57,48,90,65,40,30.11,29.84,0,0,0,0.00
2014-4-10,77,70,62,59,55,50,81,60,42,30.21,30.09,0,0,0,0.00
2014-4-11,79,72,63,70,63,58,93,76,56,30.19,30.07,0,0,0,0.02
2014-4-12,80,75,67,67,64,59,94,71,53,30.13,30.02,0,0,0,0.00
2014-4-13,76,74,70,72,69,64,96,86,72,30.05,29.94,0,0,0,1.70
2014-4-14,86,76,70,74,72,69,97,86,62,29.96,29.85,0,0,0,0.01
2014-4-15,89,78,71,75,72,69,96,83,55,29.88,29.77,1,0,1,0.39
2014-4-16,79,74,71,73,70,66,97,85,72,30.03,29.87,0,0,1,0.00
2014-4-17,80,76,73,73,72,70,94,87,76,30.10,29.99,1,0,1,0.38
2014-4-18,84,78,73,73,71,68,96,80,65,30.05,29.90,1,0,1,0.20
2014-4-19,88,78,68,74,69,61,96,77,51,29.94,29.81,17,0,18,0.11
2014-4-20,76,69,65,65,61,58,87,76,61,29.99,29.89,0,0,0,0.01
2014-4-21,79,70,62,66,63,59,93,79,62,30.00,29.87,0,0,0,0.00
2014-4-22,85,75,67,69,66,63,93,75,49,29.92,29.79,0,0,0,0.00
2014-4-23,86,75,65,70,66,63,93,75,48,29.91,29.82,0,0,0,0.00
2014-4-24,85,77,66,70,67,63,92,72,51,29.96,29.88,0,0,0,0.00
2014-4-25,90,78,69,72,68,63,92,73,43,29.98,29.86,0,0,0,0.00
2014-4-26,86,78,70,72,69,66,91,75,53,29.96,29.88,0,0,0,0.00
2014-4-27,88,80,72,72,67,58,94,67,38,29.98,29.89,0,0,0,0.00
2014-4-28,88,82,77,74,70,63,86,70,46,29.94,29.85,0,0,0,0.00
2014-4-29,88,82,78,75,73,70,88,75,58,29.97,29.83,0,0,0,0.00
2014-4-30,89,82,78,75,74,68,90,76,53,30.02,29.91,0,0,0,0.00
2014-5-1,88,81,76,75,72,68,89,75,58,29.99,29.89,0,0,0,0.00
2014-5-2,90,82,75,73,71,65,90,71,48,29.94,29.81,0,0,0,0.00
2014-5-3,88,77,74,74,71,70,94,83,57,29.95,29.85,0,0,0,0.16
2014-5-4,82,75,67,72,63,50,95,69,33,30.02,29.91,0,0,0,0.00
2014-5-5,83,76,67,68,63,57,91,68,43,30.02,29.93,0,0,0,0.00
2014-5-6,85,76,67,69,66,62,95,72,48,30.00,29.93,0,0,0,0.00
2014-5-7,85,80,75,70,68,64,76,66,56,30.09,29.95,0,0,0,0.00
2014-5-8,85,81,77,71,68,65,77,66,54,30.14,30.05,0,0,0,0.00
2014-5-9,85,80,77,70,68,66,74,67,56,30.14,30.04,0,0,0,0.00
2014-5-10,85,80,77,72,70,68,79,72,64,30.11,30.01,0,0,0,0.00
2014-5-11,84,80,78,72,69,59,80,69,50,30.10,30.00,0,0,0,0.00
2014-5-12,84,80,78,73,70,66,83,71,57,30.08,30.00,0,0,0,0.00
2014-5-13,84,80,75,75,73,70,90,79,69,30.02,29.93,0,0,0,0.13
2014-5-14,86,80,73,75,72,68,91,77,62,30.01,29.92,0,0,0,0.18
2014-5-15,83,77,74,78,74,71,96,91,78,29.97,29.87,13,0,13,0.57
2014-5-16,76,73,68,74,67,46,96,81,38,30.03,29.90,11,0,11,0.00
2014-5-17,81,74,64,63,60,56,83,63,47,30.06,29.99,0,0,0,0.00
2014-5-18,80,76,72,66,63,59,71,63,56,30.07,30.00,0,0,0,0.00
2014-5-19,82,78,74,67,64,61,73,64,54,30.09,30.02,0,0,0,0.00
2014-5-20,82,78,72,68,65,62,82,66,53,30.13,30.06,0,0,0,0.00
2014-5-21,82,77,72,65,63,59,76,63,50,30.12,30.06,0,0,0,0.00
2014-5-22,86,77,68,67,64,54,92,67,37,30.10,30.00,0,0,0,0.00
2014-5-23,90,80,70,71,68,63,92,69,42,30.06,29.96,0,0,0,0.00
2014-5-24,91,81,72,71,70,66,89,69,47,30.04,29.96,0,0,0,0.00
2014-5-25,87,80,72,73,71,66,92,74,50,30.08,29.97,0,0,0,0.00
2014-5-26,87,80,73,74,71,65,95,74,54,30.12,30.03,0,0,0,0.00
2014-5-27,87,81,76,73,71,64,89,73,49,30.10,29.99,0,0,0,0.00
2014-5-28,86,80,75,74,72,70,91,78,63,30.03,29.94,0,0,0,0.03
2014-5-29,81,77,72,76,72,69,93,85,76,30.01,29.91,7,0,7,0.53
2014-5-30,86,80,72,74,72,69,94,78,59,29.98,29.91,0,0,0,0.00
2014-5-31,86,81,73,76,73,70,95,78,66,29.98,29.91,15,3,15,0.34
2014-6-1,86,80,74,76,73,71,94,81,67,30.00,29.92,18,2,18,1.03
2014-6-2,81,78,74,74,72,68,95,82,72,30.05,29.94,18,5,18,0.42
2014-6-3,82,78,74,69,67,62,82,69,56,30.02,29.93,16,3,16,0.00
2014-6-4,83,78,73,71,69,68,88,73,62,29.95,29.87,15,4,15,0.00
2014-6-5,86,79,71,71,68,65,93,70,53,29.94,29.84,16,3,18,0.00
2014-6-6,90,80,71,74,70,66,94,72,48,29.95,29.86,9,0,9,0.00
2014-6-7,80,79,78,74,74,74,88,85,82,29.95,29.91,2,0,2,0.00
2014-6-9,89,77,72,76,71,69,96,82,56,29.97,29.85,14,1,19,0.00
2014-6-10,90,78,73,77,72,66,94,84,53,30.00,29.92,17,0,17,0.23
2014-6-11,91,78,72,76,72,70,97,86,54,29.98,29.88,11,0,11,1.90
2014-6-12,90,77,72,74,71,67,96,83,49,30.01,29.90,16,1,16,0.57
2014-6-13,91,77,72,76,72,69,96,86,52,30.04,29.92,16,0,16,0.14
2014-6-14,89,79,72,78,74,71,97,83,61,30.06,29.95,16,0,16,0.01
2014-6-15,89,82,75,77,75,72,92,80,63,30.08,29.98,2,0,2,0.00
2014-6-16,86,81,76,77,73,65,95,77,53,30.11,30.01,0,0,0,0.00
2014-6-17,81,76,71,74,72,68,95,87,76,30.11,30.01,11,0,12,0.58
2014-6-18,84,76,71,76,73,69,96,90,70,30.07,30.00,8,0,8,0.17
2014-6-19,87,76,71,76,72,67,97,89,62,30.09,30.00,23,0,23,1.07
2014-6-20,88,77,71,75,72,69,98,85,58,30.04,29.97,4,0,4,0.02
2014-6-21,90,78,73,76,73,69,97,86,51,30.00,29.89,1,0,1,0.42
2014-6-22,92,80,74,76,73,68,96,82,51,29.97,29.86,0,0,0,0.04
2014-6-23,91,82,74,77,74,70,96,77,53,30.06,29.91,0,0,0,0.00
2014-6-24,92,83,76,77,74,68,93,75,49,30.10,30.03,0,0,0,0.00
2014-6-25,91,83,77,78,76,72,93,80,56,30.09,29.99,0,0,0,0.01
2014-6-26,90,82,75,77,75,73,95,79,59,30.07,29.93,0,0,0,0.00
2014-6-27,89,83,78,77,75,71,95,78,59,30.09,29.97,0,0,0,0.00
2014-6-28,90,83,75,76,73,70,94,75,54,30.10,30.01,0,0,0,0.00
2014-6-29,94,82,76,76,73,69,92,76,49,30.08,29.98,0,0,0,0.00
2014-6-30,89,81,74,77,74,72,95,81,62,30.01,29.86,0,0,0,0.00
2014-7-1,88,81,77,76,74,70,93,81,57,29.89,29.78,0,0,0,0.00
2014-7-2,91,79,74,77,75,72,96,87,61,29.96,29.81,27,0,31,1.28
2014-7-3,96,85,77,78,75,68,95,74,43,30.06,29.94,0,0,0,0.00
2014-7-4,92,81,73,80,74,69,93,82,56,30.09,30.02,0,0,0,0.44
2014-7-5,88,79,75,79,75,70,95,88,64,30.10,30.01,10,0,10,1.71
2014-7-6,85,78,74,78,75,72,97,90,77,30.06,29.97,0,0,1,0.46
2014-7-7,88,81,76,78,76,72,97,85,66,30.07,29.97,0,0,0,0.19
2014-7-8,91,80,75,79,76,73,97,86,58,30.11,30.01,0,0,0,0.24
2014-7-9,92,78,74,79,74,72,98,89,54,30.09,30.02,0,0,0,0.39
2014-7-10,88,77,75,78,74,71,97,92,64,30.09,30.01,0,0,0,0.11
2014-7-11,89,83,75,78,76,74,97,80,61,30.10,30.01,0,0,0,0.01
2014-7-12,89,83,76,78,75,72,93,78,61,30.09,30.01,0,0,0,0.09
2014-7-13,89,84,79,79,75,72,89,77,61,30.05,29.99,0,0,0,0.02
2014-7-14,90,83,78,78,75,68,94,77,63,30.06,29.97,0,0,0,0.00
2014-7-15,92,80,73,78,75,70,95,84,55,30.00,29.92,0,0,0,0.25
2014-7-16,91,80,75,78,75,70,94,85,59,29.98,29.90,0,0,0,0.22
2014-7-17,88,79,74,78,75,71,94,87,65,30.02,29.91,1,0,1,0.12
2014-7-18,92,83,76,78,76,72,95,80,53,30.05,29.95,0,0,0,0.00
2014-7-19,91,83,77,80,76,71,95,80,61,30.04,29.95,0,0,0,1.04
2014-7-20,91,84,77,79,76,74,95,77,60,30.01,29.93,0,0,0,0.00
2014-7-21,90,81,77,78,76,73,94,85,61,30.01,29.94,0,0,0,0.04
2014-7-22,90,81,76,78,76,73,95,87,64,30.03,29.93,1,0,1,0.53
2014-7-23,90,82,77,80,77,74,97,84,63,30.06,29.96,0,0,0,0.08
2014-7-24,90,82,75,78,76,72,96,82,64,30.04,29.94,0,0,1,1.37
2014-7-25,80,78,77,76,75,74,95,91,87,30.01,29.98,0,0,0,0.00
2014-7-26,89,83,79,79,77,75,95,83,67,30.08,29.99,0,0,0,0.01
2014-7-27,93,85,77,78,75,72,93,74,54,30.07,29.99,0,0,0,0.00
2014-7-28,96,87,80,78,75,67,94,71,40,30.04,29.94,0,0,0,0.00
2014-7-29,95,83,78,79,75,69,93,78,47,29.98,29.90,0,0,0,0.16
2014-7-30,93,81,74,79,76,71,95,85,57,29.95,29.88,1,0,1,0.34
2014-7-31,78,77,0,76,75,0,94,92,92,29.95,29.89,0,0,0,0.00
2014-8-1,91,86,78,79,76,74,95,74,60,29.96,29.87,0,0,0,0.00
2014-8-2,87,81,77,79,77,74,96,87,70,29.93,29.84,0,0,0,0.94
2014-8-3,88,80,72,79,77,70,96,89,70,29.91,29.82,0,0,0,0.80
2014-8-4,88,77,74,79,74,72,97,92,67,29.98,29.82,5,0,5,0.65
2014-8-5,91,82,75,78,75,72,96,80,55,30.03,29.92,11,0,11,0.07
2014-8-6,91,83,76,78,76,71,96,80,54,30.02,29.94,12,2,12,0.01
2014-8-7,93,84,73,78,75,70,94,78,54,29.98,29.88,11,2,22,0.00
2014-8-8,92,82,75,78,76,72,96,81,56,30.01,29.92,10,2,12,0.01
2014-8-9,95,82,78,78,76,70,95,82,46,30.03,29.95,5,1,15,0.00
2014-8-10,95,86,78,80,75,66,95,73,46,30.03,29.94,20,2,20,0.01
2014-8-11,89,85,82,76,72,71,74,66,63,29.99,29.93,11,2,11,0.01
2014-8-12,94,84,77,78,75,71,92,76,49,30.00,29.92,19,2,19,0.00
2014-8-13,93,84,77,78,75,73,95,77,53,29.99,29.91,8,2,27,0.00
2014-8-14,92,82,78,79,77,74,96,86,59,30.00,29.93,4,2,15,0.01
2014-8-15,90,77,74,78,74,71,95,92,63,30.02,29.92,6,1,14,0.04
2014-8-16,95,81,75,80,75,71,97,85,52,30.07,29.95,17,2,17,0.44
2014-8-17,91,82,77,80,76,71,97,83,64,30.06,29.99,13,2,13,0.01
2014-8-18,94,85,77,79,76,72,96,77,52,30.04,29.92,16,2,16,0.00
2014-8-19,92,86,79,79,76,70,94,75,53,30.00,29.91,13,2,13,0.00